Date String (YYYY-MM-DD hh:mm:ss) UTC,Instrument flags,Ambient pressure (hPa),Sample flow (lpm),Bypass flow (lpm),Sample temperature (°C),Ambient temperature (°C),ASC tube jacket temperature (°C),LED temperature (°C),Box temperature (°C),Sample RH (%),Span deviation,Mass concentration (μg/m³),Mass concentration (μg/m³),Mass concentration (μg/m³)
DateTimeUTC,F1_M11,P_M11,Q1_M11,Q2_M11,T1_M11,T2_M11,T3_M11,T4_M11,T5_M11,U1_M11,ZSPAN_M11,X2_M11,X0_M11,X1_M11
2022-02-11 02:00:00,,0819.3,4.99,0.00,26.3,25.5,00.0,35.3,28.0,10.0,0000.0,0000.82,0005.56,0000.44
2022-02-11 02:01:00,,0819.4,5.01,0.00,26.2,25.5,00.0,35.3,28.0,09.9,0000.0,0000.78,0004.75,0000.44
2022-02-11 02:02:00,,0819.4,5.01,0.00,26.2,25.5,00.0,35.3,28.0,10.1,0000.0,0000.78,0003.79,0000.44
2022-02-11 02:03:00,,0819.3,5.00,0.00,26.2,25.5,00.0,35.3,28.0,10.2,0000.0,0000.78,0003.76,0000.44
2022-02-11 02:04:00,,0819.5,5.02,0.00,26.2,25.4,00.0,35.3,27.9,10.2,0000.0,0000.81,0003.91,0000.44
2022-02-11 02:05:00,,0819.7,4.99,0.00,26.2,25.4,00.0,35.2,27.9,10.1,0000.0,0000.88,0004.43,0000.45
2022-02-11 02:06:00,,0819.5,5.00,0.00,26.2,25.3,00.0,35.2,27.9,10.1,0000.0,0000.97,0005.97,0000.46
2022-02-11 02:07:00,,0819.4,5.00,0.00,26.1,25.3,00.0,35.2,27.9,10.1,0000.0,0000.98,0005.95,0000.46
2022-02-11 02:08:00,,0819.3,5.01,0.00,26.1,25.3,00.0,35.2,27.9,10.1,0000.0,0001.08,0006.26,0000.47
2022-02-11 02:09:00,,0819.4,4.98,0.00,26.1,25.2,00.0,35.2,27.9,10.1,0000.0,0001.24,0005.42,0000.48
2022-02-11 02:10:00,,0819.4,5.01,0.00,26.1,25.2,00.0,35.2,27.8,10.2,0000.0,0001.26,0005.54,0000.48
2022-02-11 02:11:00,,0819.3,5.00,0.00,26.1,25.1,00.0,35.1,27.8,10.1,0000.0,0001.25,0005.49,0000.48
2022-02-11 02:12:00,,0819.2,5.00,0.00,26.0,25.1,00.0,35.1,27.8,10.2,0000.0,0001.25,0005.50,0000.48
2022-02-11 02:13:00,,0819.0,5.01,0.00,26.0,25.0,00.0,35.1,27.8,10.1,0000.0,0001.24,0005.50,0000.48
2022-02-11 02:14:00,,0818.9,4.99,0.00,26.0,25.0,00.0,35.1,27.8,10.0,0000.0,0001.24,0006.14,0000.48
2022-02-11 02:15:00,,0818.9,5.00,0.00,26.0,24.9,00.0,35.1,27.7,10.0,0000.0,0001.25,0006.32,0000.49
2022-02-11 02:16:00,,0818.9,5.00,0.00,26.0,24.9,00.0,35.1,27.7,10.0,0000.0,0001.25,0006.41,0000.49
2022-02-11 02:17:00,,0818.8,5.00,0.00,26.0,24.8,00.0,35.0,27.7,10.1,0000.0,0001.17,0004.79,0000.48
2022-02-11 02:18:00,,0818.8,5.01,0.00,26.0,24.8,00.0,35.0,27.7,10.1,0000.0,0001.19,0005.38,0000.48
2022-02-11 02:19:00,,0818.8,4.98,0.00,25.9,24.8,00.0,35.0,27.7,10.3,0000.0,0001.18,0004.81,0000.49
2022-02-11 02:20:00,,0818.5,5.00,0.00,25.9,24.8,00.0,35.0,27.7,10.2,0000.0,0001.14,0005.16,0000.49
2022-02-11 02:21:00,,0818.6,5.00,0.00,25.9,24.7,00.0,35.0,27.6,10.1,0000.0,0001.16,0005.98,0000.49
2022-02-11 02:22:00,,0818.3,4.98,0.00,25.9,24.6,00.0,34.9,27.6,10.1,0000.0,0001.18,0007.52,0000.50
2022-02-11 02:23:00,,0818.4,5.02,0.00,25.8,24.6,00.0,34.9,27.6,10.1,0000.0,0001.22,0008.00,0000.50
2022-02-11 02:24:00,,0818.3,5.00,0.00,25.8,24.6,00.0,34.9,27.5,10.1,0000.0,0001.25,0008.26,0000.50
2022-02-11 02:25:00,,0818.3,5.00,0.00,25.8,24.6,00.0,34.9,27.5,10.2,0000.0,0001.21,0007.99,0000.50
2022-02-11 02:26:00,,0818.4,4.99,0.00,25.8,24.5,00.0,34.9,27.5,10.1,0000.0,0001.22,0008.51,0000.50
2022-02-11 02:27:00,,0818.4,5.00,0.00,25.7,24.5,00.0,34.8,27.5,10.2,0000.0,0001.21,0008.44,0000.50
2022-02-11 02:28:00,,0818.2,5.01,0.00,25.7,24.4,00.0,34.8,27.5,10.0,0000.0,0001.21,0008.58,0000.51
2022-02-11 02:29:00,,0818.3,4.98,0.00,25.7,24.4,00.0,34.8,27.4,10.0,0000.0,0001.16,0008.38,0000.50
2022-02-11 02:30:00,,0818.2,5.02,0.00,25.7,24.3,00.0,34.8,27.4,10.0,0000.0,0001.12,0008.31,0000.49
2022-02-11 02:31:00,,0818.3,5.00,0.00,25.6,24.3,00.0,34.7,27.4,10.1,0000.0,0001.08,0007.89,0000.49
2022-02-11 02:32:00,,0818.3,5.01,0.00,25.6,24.3,00.0,34.7,27.4,10.0,0000.0,0001.11,0007.50,0000.48
2022-02-11 02:33:00,,0818.2,4.99,0.00,25.6,24.3,00.0,34.7,27.3,10.1,0000.0,0001.09,0005.83,0000.48
2022-02-11 02:34:00,,0818.1,5.01,0.00,25.6,24.2,00.0,34.7,27.3,10.1,0000.0,0001.07,0005.42,0000.47
2022-02-11 02:35:00,,0818.2,4.99,0.00,25.6,24.2,00.0,34.6,27.3,10.0,0000.0,0001.09,0005.42,0000.48
2022-02-11 02:36:00,,0818.1,5.00,0.00,25.5,24.2,00.0,34.6,27.2,10.1,0000.0,0001.11,0006.72,0000.49
2022-02-11 02:37:00,,0818.2,5.00,0.00,25.5,24.1,00.0,34.6,27.2,10.0,0000.0,0001.06,0005.73,0000.48
2022-02-11 02:38:00,,0818.2,4.99,0.00,25.5,24.2,00.0,34.6,27.2,10.3,0000.0,0001.02,0005.51,0000.48
2022-02-11 02:39:00,,0818.1,5.01,0.00,25.5,24.1,00.0,34.6,27.2,10.3,0000.0,0001.01,0005.17,0000.48
2022-02-11 02:40:00,,0818.2,5.01,0.00,25.4,24.1,00.0,34.5,27.2,10.3,0000.0,0001.02,0004.79,0000.48
2022-02-11 02:41:00,,0818.2,5.00,0.00,25.4,24.1,00.0,34.5,27.2,10.2,0000.0,0000.99,0004.76,0000.47
2022-02-11 02:42:00,,0818.3,4.98,0.00,25.4,24.1,00.0,34.5,27.2,10.2,0000.0,0000.95,0004.61,0000.47
2022-02-11 02:43:00,,0818.1,5.02,0.00,25.4,24.1,00.0,34.5,27.1,10.2,0000.0,0000.90,0004.48,0000.48
2022-02-11 02:44:00,,0818.1,5.00,0.00,25.4,24.0,00.0,34.4,27.1,10.1,0000.0,0000.91,0004.55,0000.47
2022-02-11 02:45:00,,0818.3,4.99,0.00,25.3,24.0,00.0,34.4,27.1,10.3,0000.0,0000.92,0004.44,0000.47
2022-02-11 02:46:00,,0818.3,5.01,0.00,25.3,24.0,00.0,34.4,27.1,10.3,0000.0,0000.87,0004.37,0000.48
2022-02-11 02:47:00,,0818.3,4.99,0.00,25.3,24.0,00.0,34.4,27.0,10.3,0000.0,0000.86,0003.23,0000.47
2022-02-11 02:48:00,,0818.3,5.00,0.00,25.3,24.0,00.0,34.4,27.0,10.4,0000.0,0000.87,0003.05,0000.48
2022-02-11 02:49:00,,0818.4,5.01,0.00,25.2,23.9,00.0,34.3,27.0,10.6,0000.0,0000.89,0003.47,0000.47
2022-02-11 02:50:00,,0818.3,5.01,0.00,25.2,23.9,00.0,34.3,26.9,10.6,0000.0,0000.92,0003.64,0000.47
2022-02-11 02:51:00,,0818.2,4.99,0.00,25.2,23.9,00.0,34.3,26.9,10.7,0000.0,0000.93,0003.66,0000.47
2022-02-11 02:52:00,,0818.3,5.00,0.00,25.2,23.8,00.0,34.3,26.9,10.7,0000.0,0000.93,0003.74,0000.48
2022-02-11 02:53:00,,0818.4,5.01,0.00,25.2,23.8,00.0,34.3,26.9,10.7,0000.0,0000.95,0003.84,0000.48
2022-02-11 02:54:00,,0818.5,5.01,0.00,25.1,23.8,00.0,34.2,26.9,10.7,0000.0,0000.91,0003.83,0000.48
2022-02-11 02:55:00,,0818.5,4.99,0.00,25.1,23.8,00.0,34.2,26.9,10.8,0000.0,0000.89,0003.74,0000.48
2022-02-11 02:56:00,,0818.5,5.01,0.00,25.1,23.8,00.0,34.2,26.9,10.8,0000.0,0000.85,0003.23,0000.47
2022-02-11 02:57:00,,0818.5,5.00,0.00,25.1,23.8,00.0,34.2,26.8,10.9,0000.0,0000.82,0002.74,0000.47
2022-02-11 02:58:00,,0818.6,4.99,0.00,25.1,23.8,00.0,34.2,26.8,10.9,0000.0,0000.81,0002.50,0000.45
2022-02-11 02:59:00,,0818.5,5.00,0.00,25.0,23.8,00.0,34.1,26.8,10.9,0000.0,0000.85,0002.45,0000.45
